| time (UTC) | temp C | wind direction | speed KPH | gust KPH | rain 1hr cm | rain 24hr cm | rain mn cm | humidity % | barometer mb |
| 20260507230504 | 12 | 118 | 0.0 | 0.0 | 0.00 | 0.00 | 0.00 | 79 | 993.0 |
| 20260507230005 | 12 | 118 | 0.0 | 0.0 | 0.00 | 0.00 | 0.00 | 78 | 993.0 |
| 20260507225504 | 12 | 118 | 0.0 | 0.0 | 0.00 | 0.00 | 0.00 | 78 | 994.0 |
| 20260507225004 | 12 | 118 | 0.0 | 0.0 | 0.00 | 0.00 | 0.00 | 78 | 994.0 |
| 20260507224505 | 12 | 118 | 0.0 | 0.0 | 0.00 | 0.00 | 0.00 | 78 | 994.0 |
| 20260507224004 | 12 | 118 | 0.0 | 0.0 | 0.00 | 0.00 | 0.00 | 77 | 994.0 |
| 20260507223504 | 12 | 118 | 0.0 | 0.0 | 0.00 | 0.00 | 0.00 | 77 | 994.0 |
| 20260507223004 | 12 | 118 | 0.0 | 0.0 | 0.00 | 0.00 | 0.00 | 77 | 994.0 |
| 20260507222504 | 12 | 118 | 0.0 | 0.0 | 0.00 | 0.00 | 0.00 | 77 | 994.0 |
| 20260507222004 | 12 | 118 | 0.0 | 0.0 | 0.00 | 0.00 | 0.00 | 78 | 994.0 |
| 20260507221504 | 12 | 118 | 0.0 | 0.0 | 0.00 | 0.00 | 0.00 | 78 | 994.0 |
| 20260507221004 | 12 | 118 | 0.0 | 0.0 | 0.00 | 0.00 | 0.00 | 78 | 1041.0 |
| 20260507220504 | 12 | 118 | 0.0 | 0.0 | 0.00 | 0.00 | 0.00 | 78 | 1041.0 |
| 20260507220004 | 12 | 118 | 0.0 | 0.0 | 0.00 | 0.00 | 0.00 | 77 | 1041.0 |
| 20260507215505 | 12 | 118 | 0.0 | 0.0 | 0.00 | 0.00 | 0.00 | 76 | 994.0 |
| 20260507215004 | 12 | 118 | 0.0 | 0.0 | 0.00 | 0.00 | 0.00 | 75 | 994.0 |
| 20260507214504 | 13 | 118 | 0.0 | 0.0 | 0.00 | 0.00 | 0.00 | 74 | 994.0 |
| 20260507214004 | 13 | 118 | 0.0 | 0.0 | 0.00 | 0.00 | 0.00 | 74 | 994.0 |
| 20260507213504 | 13 | 118 | 0.0 | 0.0 | 0.00 | 0.00 | 0.00 | 73 | 994.0 |
| 20260507213004 | 13 | 118 | 0.0 | 0.0 | 0.00 | 0.00 | 0.00 | 73 | 994.0 |
| 20260507212505 | 13 | 118 | 0.0 | 0.0 | 0.00 | 0.00 | 0.00 | 73 | 994.0 |
| 20260507212004 | 13 | 118 | 0.0 | 0.0 | 0.00 | 0.00 | 0.00 | 73 | 994.0 |
| 20260507211504 | 13 | 118 | 0.0 | 0.0 | 0.00 | 0.00 | 0.00 | 72 | 994.0 |
| 20260507211004 | 13 | 118 | 0.0 | 0.0 | 0.00 | 0.00 | 0.00 | 72 | 994.0 |
| 20260507210504 | 13 | 118 | 0.0 | 0.0 | 0.00 | 0.00 | 0.00 | 71 | 994.0 |
| 20260507210005 | 13 | 118 | 0.0 | 0.0 | 0.00 | 0.00 | 0.00 | 72 | 994.0 |
| 20260507205505 | 13 | 118 | 0.0 | 0.0 | 0.00 | 0.00 | 0.00 | 73 | 993.0 |
| 20260507205004 | 13 | 118 | 0.0 | 0.0 | 0.00 | 0.00 | 0.00 | 73 | 993.0 |
| 20260507204505 | 13 | 118 | 0.0 | 0.0 | 0.00 | 0.00 | 0.00 | 73 | 993.0 |
| 20260507204005 | 13 | 118 | 0.0 | 0.0 | 0.00 | 0.00 | 0.00 | 73 | 993.0 |
| 20260507203504 | 13 | 118 | 0.0 | 0.0 | 0.00 | 0.00 | 0.00 | 71 | 993.0 |
| 20260507203004 | 14 | 118 | 0.0 | 0.0 | 0.00 | 0.00 | 0.00 | 68 | 993.0 |
| 20260507202504 | 14 | 118 | 0.0 | 0.0 | 0.00 | 0.00 | 0.00 | 67 | 993.0 |
| 20260507202005 | 14 | 118 | 0.0 | 0.0 | 0.00 | 0.00 | 0.00 | 67 | 993.0 |
| 20260507201504 | 15 | 118 | 0.0 | 0.0 | 0.00 | 0.00 | 0.00 | 67 | 993.0 |
| 20260507201004 | 15 | 118 | 0.0 | 0.0 | 0.00 | 0.00 | 0.00 | 66 | 993.0 |
| 20260507200504 | 15 | 118 | 0.0 | 0.0 | 0.00 | 0.00 | 0.00 | 65 | 993.0 |
| 20260507200004 | 15 | 118 | 0.0 | 0.0 | 0.00 | 0.00 | 0.00 | 62 | 993.0 |
| 20260507195504 | 15 | 118 | 0.0 | 3.2 | 0.00 | 0.00 | 0.00 | 61 | 992.0 |
| 20260507195004 | 15 | 340 | 0.0 | 0.0 | 0.00 | 0.00 | 0.00 | 59 | 992.0 |
| 20260507194504 | 16 | 339 | 0.0 | 0.0 | 0.00 | 0.00 | 0.00 | 59 | 992.0 |
| 20260507194004 | 16 | 339 | 0.0 | 0.0 | 0.00 | 0.00 | 0.00 | 59 | 992.0 |
| 20260507193505 | 16 | 340 | 0.0 | 0.0 | 0.00 | 0.00 | 0.00 | 58 | 992.0 |
| 20260507193004 | 16 | 340 | 0.0 | 0.0 | 0.00 | 0.00 | 0.00 | 57 | 992.0 |
| 20260507192504 | 16 | 340 | 0.0 | 0.0 | 0.00 | 0.00 | 0.00 | 56 | 993.0 |
| 20260507192004 | 16 | 340 | 0.0 | 0.0 | 0.00 | 0.00 | 0.00 | 55 | 993.0 |
| 20260507191504 | 16 | 340 | 0.0 | 0.0 | 0.00 | 0.00 | 0.00 | 54 | 993.0 |
| 20260507191004 | 16 | 340 | 0.0 | 0.0 | 0.00 | 0.00 | 0.00 | 53 | 992.0 |
| 20260507190504 | 16 | 339 | 0.0 | 3.2 | 0.00 | 0.00 | 0.00 | 53 | 992.0 |
| 20260507190005 | 16 | 319 | 0.0 | 0.0 | 0.00 | 0.00 | 0.00 | 53 | 992.0 |
| 20260507185504 | 16 | 318 | 0.0 | 0.0 | 0.00 | 0.00 | 0.00 | 53 | 993.0 |
| 20260507185004 | 16 | 319 | 0.0 | 3.2 | 0.00 | 0.00 | 0.00 | 53 | 993.0 |
| 20260507184504 | 16 | 295 | 0.0 | 0.0 | 0.00 | 0.00 | 0.00 | 50 | 993.0 |
| 20260507184004 | 17 | 348 | 0.0 | 4.8 | 0.00 | 0.00 | 0.00 | 49 | 994.0 |
| 20260507183504 | 17 | 328 | 0.0 | 0.0 | 0.00 | 0.00 | 0.00 | 47 | 994.0 |
| 20260507183004 | 17 | 317 | 1.6 | 4.8 | 0.00 | 0.00 | 0.00 | 46 | 994.0 |
| 20260507182504 | 18 | 312 | 0.0 | 4.8 | 0.00 | 0.00 | 0.00 | 43 | 994.0 |
| 20260507182004 | 18 | 324 | 0.0 | 0.0 | 0.00 | 0.00 | 0.00 | 38 | 994.0 |
| 20260507181504 | 18 | 324 | 0.0 | 0.0 | 0.00 | 0.00 | 0.00 | 37 | 994.0 |
| 20260507181005 | 18 | 324 | 0.0 | 0.0 | 0.00 | 0.00 | 0.00 | 36 | 992.0 |
| 20260507180504 | 19 | 323 | 0.0 | 0.0 | 0.00 | 0.00 | 0.00 | 36 | 992.0 |
| 20260507180004 | 18 | 324 | 0.0 | 0.0 | 0.00 | 0.00 | 0.00 | 39 | 992.0 |
| 20260507175504 | 18 | 324 | 0.0 | 4.8 | 0.00 | 0.00 | 0.00 | 40 | 993.0 |
| 20260507175004 | 18 | 43 | 0.0 | 0.0 | 0.00 | 0.00 | 0.00 | 40 | 993.0 |
| 20260507174504 | 18 | 61 | 0.0 | 0.0 | 0.00 | 0.00 | 0.00 | 39 | 993.0 |
| 20260507174005 | 18 | 61 | 0.0 | 0.0 | 0.00 | 0.00 | 0.00 | 39 | 992.0 |
| 20260507173504 | 18 | 62 | 0.0 | 0.0 | 0.00 | 0.00 | 0.00 | 39 | 992.0 |
| 20260507173005 | 18 | 62 | 0.0 | 0.0 | 0.00 | 0.00 | 0.00 | 39 | 992.0 |
| 20260507172504 | 18 | 62 | 0.0 | 0.0 | 0.00 | 0.00 | 0.00 | 38 | 992.0 |
| 20260507172004 | 18 | 62 | 0.0 | 0.0 | 0.00 | 0.00 | 0.00 | 38 | 992.0 |
| 20260507171504 | 18 | 62 | 0.0 | 0.0 | 0.00 | 0.00 | 0.00 | 37 | 992.0 |
| 20260507171004 | 18 | 62 | 0.0 | 0.0 | 0.00 | 0.00 | 0.00 | 37 | 993.0 |
| 20260507170504 | 18 | 62 | 0.0 | 0.0 | 0.00 | 0.00 | 0.00 | 37 | 993.0 |
| 20260507170004 | 18 | 62 | 0.0 | 0.0 | 0.00 | 0.00 | 0.00 | 37 | 993.0 |
| 20260507165504 | 18 | 62 | 0.0 | 0.0 | 0.00 | 0.00 | 0.00 | 38 | 993.0 |
| 20260507165004 | 18 | 62 | 0.0 | 0.0 | 0.00 | 0.00 | 0.00 | 39 | 993.0 |
| 20260507164504 | 18 | 62 | 0.0 | 0.0 | 0.00 | 0.00 | 0.00 | 40 | 993.0 |
| 20260507164004 | 18 | 62 | 0.0 | 0.0 | 0.00 | 0.00 | 0.00 | 40 | 993.0 |
| 20260507163504 | 18 | 62 | 0.0 | 0.0 | 0.00 | 0.00 | 0.00 | 40 | 993.0 |
| 20260507163004 | 17 | 62 | 0.0 | 0.0 | 0.00 | 0.00 | 0.00 | 40 | 993.0 |
| 20260507162504 | 17 | 52 | 0.0 | 0.0 | 0.00 | 0.00 | 0.00 | 40 | 993.0 |
| 20260507162004 | 17 | 52 | 0.0 | 4.8 | 0.00 | 0.00 | 0.00 | 39 | 993.0 |
| 20260507161504 | 17 | 352 | 3.2 | 9.7 | 0.00 | 0.00 | 0.00 | 37 | 993.0 |
| 20260507161004 | 17 | 302 | 1.6 | 4.8 | 0.00 | 0.00 | 0.00 | 36 | 993.0 |
| 20260507160504 | 17 | 293 | 0.0 | 9.7 | 0.00 | 0.00 | 0.00 | 34 | 993.0 |
| 20260507160005 | 18 | 346 | 4.8 | 12.9 | 0.00 | 0.00 | 0.00 | 33 | 993.0 |
| 20260507155504 | 18 | 325 | 1.6 | 8.0 | 0.00 | 0.00 | 0.00 | 31 | 993.0 |
| 20260507155005 | 18 | 341 | 3.2 | 8.0 | 0.00 | 0.00 | 0.00 | 29 | 993.0 |
| 20260507154504 | 19 | 319 | 4.8 | 9.7 | 0.00 | 0.00 | 0.00 | 26 | 993.0 |
| 20260507154005 | 20 | 106 | 6.4 | 11.3 | 0.00 | 0.00 | 0.00 | 25 | 992.0 |
| 20260507153504 | 20 | 53 | 4.8 | 19.3 | 0.00 | 0.00 | 0.00 | 25 | 992.0 |
| 20260507153004 | 21 | 302 | 3.2 | 16.1 | 0.00 | 0.00 | 0.00 | 24 | 992.0 |
| 20260507152504 | 22 | 299 | 0.0 | 9.7 | 0.00 | 0.00 | 0.00 | 25 | 992.0 |
| 20260507152004 | 22 | 281 | 0.0 | 0.0 | 0.00 | 0.00 | 0.00 | 24 | 992.0 |
| 20260507151504 | 23 | 280 | 0.0 | 0.0 | 0.00 | 0.00 | 0.00 | 23 | 992.0 |
| 20260507151003 | 23 | 281 | 0.0 | 3.2 | 0.00 | 0.00 | 0.00 | 22 | 992.0 |
| 20260507150504 | 25 | 102 | 0.0 | 0.0 | 0.00 | 0.00 | 0.00 | 23 | 992.0 |
| 20260507150004 | 24 | 105 | 0.0 | 3.2 | 0.00 | 0.00 | 0.00 | 23 | 992.0 |
| 20260507145504 | 23 | 105 | 0.0 | 0.0 | 0.00 | 0.00 | 0.00 | 25 | 992.0 |
| 20260507145004 | 23 | 102 | 0.0 | 0.0 | 0.00 | 0.00 | 0.00 | 25 | 992.0 |
| 20260507144504 | 23 | 106 | 0.0 | 0.0 | 0.00 | 0.00 | 0.00 | 27 | 992.0 |
| 20260507144004 | 23 | 106 | 0.0 | 0.0 | 0.00 | 0.00 | 0.00 | 28 | 992.0 |
| 20260507143504 | 22 | 106 | 0.0 | 0.0 | 0.00 | 0.00 | 0.00 | 31 | 992.0 |
| 20260507143004 | 22 | 280 | 0.0 | 0.0 | 0.00 | 0.00 | 0.00 | 32 | 992.0 |
| 20260507142504 | 22 | 280 | 0.0 | 0.0 | 0.00 | 0.00 | 0.00 | 32 | 992.0 |
| 20260507142004 | 22 | 280 | 0.0 | 0.0 | 0.00 | 0.00 | 0.00 | 32 | 992.0 |
| 20260507141504 | 22 | 280 | 0.0 | 0.0 | 0.00 | 0.00 | 0.00 | 33 | 992.0 |
| 20260507141004 | 22 | 279 | 0.0 | 0.0 | 0.00 | 0.00 | 0.00 | 33 | 992.0 |
| 20260507140504 | 22 | 279 | 0.0 | 0.0 | 0.00 | 0.00 | 0.00 | 33 | 992.0 |
| 20260507140004 | 22 | 280 | 0.0 | 3.2 | 0.00 | 0.00 | 0.00 | 33 | 992.0 |
| 20260507135504 | 22 | 279 | 0.0 | 3.2 | 0.00 | 0.00 | 0.00 | 33 | 993.0 |
| 20260507135004 | 21 | 138 | 0.0 | 0.0 | 0.00 | 0.00 | 0.00 | 34 | 993.0 |
| 20260507134504 | 21 | 263 | 0.0 | 4.8 | 0.00 | 0.00 | 0.00 | 33 | 993.0 |
| 20260507134004 | 21 | 279 | 0.0 | 4.8 | 0.00 | 0.10 | 0.00 | 33 | 993.0 |
| 20260507133504 | 22 | 98 | 0.0 | 4.8 | 0.00 | 0.10 | 0.00 | 32 | 993.0 |
| 20260507133004 | 22 | 333 | 0.0 | 0.0 | 0.00 | 0.10 | 0.00 | 31 | 993.0 |
| 20260507132504 | 23 | 333 | 0.0 | 0.0 | 0.00 | 0.10 | 0.00 | 29 | 993.0 |
| 20260507132004 | 24 | 334 | 0.0 | 0.0 | 0.00 | 0.10 | 0.00 | 30 | 993.0 |
| 20260507131504 | 23 | 334 | 0.0 | 0.0 | 0.00 | 0.10 | 0.00 | 30 | 993.0 |
| 20260507131004 | 23 | 334 | 0.0 | 0.0 | 0.00 | 0.10 | 0.00 | 29 | 993.0 |
| 20260507130506 | 23 | 334 | 0.0 | 0.0 | 0.00 | 0.10 | 0.00 | 29 | 993.0 |
| 20260507130006 | 23 | 333 | 0.0 | 0.0 | 0.00 | 0.10 | 0.00 | 28 | 993.0 |
| 20260507125506 | 23 | 333 | 0.0 | 0.0 | 0.00 | 0.10 | 0.00 | 28 | 993.0 |
| 20260507125006 | 24 | 333 | 0.0 | 0.0 | 0.00 | 0.10 | 0.00 | 28 | 993.0 |
| 20260507124506 | 24 | 334 | 0.0 | 0.0 | 0.00 | 0.10 | 0.00 | 29 | 993.0 |
| 20260507124006 | 23 | 334 | 0.0 | 0.0 | 0.00 | 0.10 | 0.00 | 31 | 994.0 |
| 20260507123506 | 22 | 334 | 0.0 | 0.0 | 0.00 | 0.10 | 0.00 | 32 | 994.0 |
| 20260507123006 | 22 | 334 | 0.0 | 0.0 | 0.00 | 0.10 | 0.00 | 32 | 994.0 |
| 20260507122505 | 22 | 334 | 0.0 | 0.0 | 0.00 | 0.10 | 0.00 | 32 | 994.0 |
| 20260507122006 | 22 | 334 | 0.0 | 3.2 | 0.00 | 0.10 | 0.00 | 31 | 994.0 |
| 20260507121506 | 22 | 334 | 0.0 | 0.0 | 0.00 | 0.10 | 0.00 | 31 | 994.0 |
| 20260507121006 | 22 | 334 | 0.0 | 0.0 | 0.00 | 0.10 | 0.00 | 32 | 994.0 |
| 20260507120506 | 21 | 334 | 0.0 | 0.0 | 0.00 | 0.10 | 0.00 | 33 | 994.0 |
| 20260507120006 | 21 | 334 | 0.0 | 0.0 | 0.00 | 0.10 | 0.00 | 33 | 994.0 |
| 20260507115506 | 21 | 334 | 0.0 | 0.0 | 0.00 | 0.10 | 0.00 | 33 | 994.0 |
| 20260507115006 | 21 | 334 | 0.0 | 0.0 | 0.00 | 0.10 | 0.00 | 32 | 994.0 |
| 20260507114505 | 21 | 334 | 0.0 | 0.0 | 0.00 | 0.10 | 0.00 | 33 | 994.0 |
| 20260507114006 | 21 | 334 | 0.0 | 0.0 | 0.00 | 0.10 | 0.00 | 33 | 994.0 |
| 20260507113506 | 21 | 334 | 0.0 | 0.0 | 0.00 | 0.10 | 0.00 | 33 | 994.0 |
| 20260507113006 | 21 | 334 | 0.0 | 0.0 | 0.00 | 0.10 | 0.00 | 33 | 994.0 |
| 20260507112506 | 21 | 334 | 0.0 | 0.0 | 0.00 | 0.10 | 0.00 | 33 | 995.0 |
| 20260507112006 | 21 | 334 | 0.0 | 0.0 | 0.00 | 0.10 | 0.00 | 33 | 995.0 |
| 20260507111507 | 21 | 334 | 0.0 | 0.0 | 0.00 | 0.10 | 0.00 | 34 | 995.0 |
| 20260507111006 | 20 | 334 | 0.0 | 0.0 | 0.00 | 0.10 | 0.00 | 33 | 995.0 |
| 20260507110506 | 20 | 334 | 0.0 | 0.0 | 0.00 | 0.10 | 0.00 | 34 | 995.0 |
| 20260507110006 | 20 | 334 | 0.0 | 0.0 | 0.00 | 0.10 | 0.00 | 34 | 995.0 |
| 20260507105506 | 20 | 334 | 0.0 | 0.0 | 0.00 | 0.10 | 0.00 | 34 | 995.0 |
| 20260507105006 | 20 | 334 | 0.0 | 0.0 | 0.00 | 0.10 | 0.00 | 34 | 995.0 |
| 20260507104506 | 20 | 334 | 0.0 | 0.0 | 0.00 | 0.10 | 0.00 | 34 | 995.0 |
| 20260507104006 | 20 | 334 | 0.0 | 0.0 | 0.00 | 0.10 | 0.00 | 35 | 995.0 |
| 20260507103506 | 20 | 334 | 0.0 | 0.0 | 0.00 | 0.10 | 0.00 | 36 | 995.0 |
| 20260507103006 | 19 | 334 | 0.0 | 0.0 | 0.00 | 0.10 | 0.00 | 37 | 995.0 |
| 20260507102505 | 19 | 334 | 0.0 | 0.0 | 0.00 | 0.10 | 0.00 | 38 | 995.0 |
| 20260507102007 | 19 | 334 | 0.0 | 0.0 | 0.00 | 0.10 | 0.00 | 38 | 995.0 |
| 20260507101507 | 18 | 334 | 0.0 | 0.0 | 0.00 | 0.10 | 0.00 | 38 | 995.0 |
| 20260507101006 | 18 | 334 | 0.0 | 0.0 | 0.00 | 0.10 | 0.00 | 38 | 995.0 |
| 20260507100506 | 18 | 334 | 0.0 | 0.0 | 0.00 | 0.10 | 0.00 | 40 | 995.0 |
| 20260507100006 | 18 | 334 | 0.0 | 0.0 | 0.00 | 0.10 | 0.00 | 41 | 995.0 |
| 20260507095506 | 18 | 334 | 0.0 | 0.0 | 0.00 | 0.10 | 0.00 | 42 | 996.0 |
| 20260507095006 | 18 | 334 | 0.0 | 0.0 | 0.00 | 0.10 | 0.00 | 43 | 996.0 |
| 20260507094506 | 17 | 334 | 0.0 | 0.0 | 0.00 | 0.10 | 0.00 | 43 | 996.0 |
| 20260507094006 | 17 | 334 | 0.0 | 0.0 | 0.00 | 0.10 | 0.00 | 43 | 996.0 |
| 20260507093506 | 17 | 334 | 0.0 | 0.0 | 0.00 | 0.10 | 0.00 | 44 | 996.0 |
| 20260507093006 | 17 | 334 | 0.0 | 0.0 | 0.00 | 0.10 | 0.00 | 45 | 996.0 |
| 20260507092506 | 17 | 334 | 0.0 | 0.0 | 0.00 | 0.10 | 0.00 | 44 | 996.0 |
| 20260507092006 | 17 | 334 | 0.0 | 0.0 | 0.00 | 0.10 | 0.00 | 45 | 996.0 |
| 20260507091506 | 17 | 334 | 0.0 | 0.0 | 0.00 | 0.10 | 0.00 | 45 | 996.0 |
| 20260507091006 | 17 | 334 | 0.0 | 0.0 | 0.00 | 0.10 | 0.00 | 45 | 995.0 |
| 20260507090507 | 17 | 334 | 0.0 | 0.0 | 0.00 | 0.10 | 0.00 | 44 | 995.0 |
| 20260507090006 | 17 | 334 | 0.0 | 0.0 | 0.00 | 0.10 | 0.00 | 46 | 995.0 |
| 20260507085505 | 16 | 334 | 0.0 | 0.0 | 0.00 | 0.10 | 0.00 | 48 | 995.0 |
| 20260507085006 | 16 | 334 | 0.0 | 0.0 | 0.00 | 0.10 | 0.00 | 50 | 995.0 |
| 20260507084506 | 16 | 334 | 0.0 | 0.0 | 0.00 | 0.10 | 0.00 | 50 | 995.0 |
| 20260507084006 | 15 | 334 | 0.0 | 0.0 | 0.00 | 0.10 | 0.00 | 51 | 996.0 |
| 20260507083505 | 15 | 334 | 0.0 | 0.0 | 0.00 | 0.10 | 0.00 | 53 | 996.0 |
| 20260507083006 | 15 | 334 | 0.0 | 0.0 | 0.00 | 0.10 | 0.00 | 54 | 996.0 |
| 20260507082506 | 15 | 334 | 0.0 | 0.0 | 0.00 | 0.10 | 0.00 | 52 | 995.0 |
| 20260507082006 | 15 | 334 | 0.0 | 0.0 | 0.00 | 0.10 | 0.00 | 53 | 995.0 |
| 20260507081506 | 15 | 334 | 0.0 | 0.0 | 0.00 | 0.10 | 0.00 | 55 | 995.0 |
| 20260507081005 | 15 | 334 | 0.0 | 0.0 | 0.00 | 0.10 | 0.00 | 59 | 995.0 |
| 20260507080505 | 13 | 334 | 0.0 | 0.0 | 0.00 | 0.10 | 0.00 | 60 | 995.0 |
| 20260507080006 | 13 | 334 | 0.0 | 0.0 | 0.00 | 0.10 | 0.00 | 63 | 995.0 |
| 20260507075506 | 13 | 334 | 0.0 | 0.0 | 0.00 | 0.10 | 0.00 | 67 | 995.0 |
| 20260507075005 | 13 | 334 | 0.0 | 0.0 | 0.00 | 0.10 | 0.00 | 69 | 995.0 |
| 20260507074506 | 13 | 333 | 0.0 | 0.0 | 0.00 | 0.10 | 0.00 | 71 | 995.0 |
| 20260507074005 | 12 | 333 | 0.0 | 0.0 | 0.00 | 0.10 | 0.00 | 72 | 995.0 |
| 20260507073506 | 12 | 333 | 0.0 | 0.0 | 0.00 | 0.10 | 0.00 | 73 | 995.0 |
| 20260507073006 | 12 | 334 | 0.0 | 0.0 | 0.00 | 0.10 | 0.00 | 74 | 995.0 |
| 20260507072506 | 11 | 333 | 0.0 | 0.0 | 0.00 | 0.10 | 0.00 | 74 | 995.0 |
| 20260507072006 | 11 | 333 | 0.0 | 0.0 | 0.00 | 0.10 | 0.00 | 75 | 995.0 |
| 20260507071506 | 11 | 333 | 0.0 | 0.0 | 0.00 | 0.10 | 0.00 | 75 | 995.0 |
| 20260507071006 | 11 | 334 | 0.0 | 0.0 | 0.00 | 0.10 | 0.00 | 75 | 996.0 |
| 20260507070505 | 11 | 334 | 0.0 | 0.0 | 0.00 | 0.10 | 0.00 | 76 | 996.0 |
| 20260507070010 | 11 | 333 | 0.0 | 0.0 | 0.00 | 0.10 | 0.00 | 76 | 996.0 |
| 20260507065505 | 11 | 333 | 0.0 | 0.0 | 0.00 | 0.10 | 0.00 | 76 | 996.0 |
| 20260507065006 | 11 | 333 | 0.0 | 0.0 | 0.00 | 0.10 | 0.00 | 77 | 996.0 |
| 20260507064506 | 10 | 333 | 0.0 | 0.0 | 0.00 | 0.10 | 0.00 | 77 | 996.0 |
| 20260507064006 | 10 | 334 | 0.0 | 0.0 | 0.00 | 0.10 | 0.00 | 78 | 996.0 |
| 20260507063506 | 10 | 333 | 0.0 | 0.0 | 0.00 | 0.10 | 0.00 | 78 | 996.0 |
| 20260507063006 | 10 | 333 | 0.0 | 0.0 | 0.00 | 0.10 | 0.00 | 79 | 996.0 |
| 20260507062506 | 10 | 333 | 0.0 | 0.0 | 0.00 | 0.10 | 0.00 | 79 | 996.0 |
| 20260507062006 | 10 | 333 | 0.0 | 0.0 | 0.00 | 0.10 | 0.00 | 79 | 996.0 |
| 20260507061506 | 10 | 334 | 0.0 | 0.0 | 0.00 | 0.10 | 0.00 | 80 | 996.0 |
| 20260507061006 | 10 | 334 | 0.0 | 0.0 | 0.00 | 0.10 | 0.00 | 80 | 996.0 |
| 20260507060505 | 10 | 334 | 0.0 | 0.0 | 0.00 | 0.10 | 0.00 | 80 | 996.0 |
| 20260507060006 | 10 | 334 | 0.0 | 0.0 | 0.00 | 0.10 | 0.00 | 80 | 996.0 |
| 20260507055507 | 10 | 333 | 0.0 | 0.0 | 0.00 | 0.10 | 0.00 | 80 | 996.0 |
| 20260507055006 | 10 | 334 | 0.0 | 0.0 | 0.00 | 0.10 | 0.00 | 80 | 996.0 |
| 20260507054506 | 10 | 333 | 0.0 | 0.0 | 0.00 | 0.10 | 0.00 | 80 | 996.0 |
| 20260507054006 | 10 | 333 | 0.0 | 0.0 | 0.00 | 0.10 | 0.00 | 80 | 996.0 |
| 20260507053506 | 10 | 333 | 0.0 | 0.0 | 0.00 | 0.10 | 0.00 | 80 | 996.0 |
| 20260507053006 | 10 | 333 | 0.0 | 0.0 | 0.00 | 0.10 | 0.00 | 80 | 996.0 |
| 20260507052506 | 10 | 334 | 0.0 | 0.0 | 0.00 | 0.10 | 0.00 | 80 | 996.0 |
| 20260507052006 | 10 | 333 | 0.0 | 0.0 | 0.00 | 0.10 | 0.00 | 80 | 996.0 |
| 20260507051506 | 10 | 334 | 0.0 | 0.0 | 0.00 | 0.10 | 0.00 | 80 | 996.0 |
| 20260507051006 | 10 | 333 | 0.0 | 0.0 | 0.00 | 0.10 | 0.00 | 80 | 996.0 |
| 20260507050506 | 10 | 334 | 0.0 | 0.0 | 0.00 | 0.10 | 0.00 | 80 | 996.0 |
| 20260507050006 | 10 | 333 | 0.0 | 0.0 | 0.00 | 0.10 | 0.00 | 80 | 996.0 |
| 20260507045505 | 10 | 334 | 0.0 | 0.0 | 0.00 | 0.10 | 0.00 | 80 | 996.0 |
| 20260507045006 | 10 | 333 | 0.0 | 0.0 | 0.00 | 0.10 | 0.00 | 80 | 996.0 |
| 20260507044506 | 10 | 334 | 0.0 | 0.0 | 0.00 | 0.10 | 0.00 | 80 | 996.0 |
| 20260507044006 | 10 | 334 | 0.0 | 0.0 | 0.00 | 0.10 | 0.00 | 80 | 996.0 |
| 20260507043506 | 10 | 333 | 0.0 | 0.0 | 0.00 | 0.10 | 0.00 | 80 | 996.0 |
| 20260507043006 | 10 | 333 | 0.0 | 0.0 | 0.00 | 0.10 | 0.00 | 80 | 996.0 |
| 20260507042506 | 10 | 333 | 0.0 | 0.0 | 0.00 | 0.10 | 0.00 | 80 | 996.0 |
| 20260507042006 | 10 | 333 | 0.0 | 0.0 | 0.00 | 0.10 | 0.00 | 80 | 996.0 |
| 20260507041506 | 10 | 334 | 0.0 | 0.0 | 0.00 | 0.10 | 0.00 | 80 | 996.0 |
| 20260507041006 | 10 | 333 | 0.0 | 0.0 | 0.00 | 0.10 | 0.00 | 80 | 996.0 |
| 20260507040506 | 10 | 333 | 0.0 | 0.0 | 0.00 | 0.10 | 0.00 | 80 | 996.0 |
| 20260507040005 | 10 | 333 | 0.0 | 0.0 | 0.00 | 0.10 | 0.00 | 81 | 996.0 |
| 20260507035506 | 10 | 333 | 0.0 | 0.0 | 0.00 | 0.10 | 0.00 | 81 | 996.0 |
| 20260507035006 | 10 | 333 | 0.0 | 0.0 | 0.00 | 0.10 | 0.00 | 81 | 996.0 |
| 20260507034506 | 10 | 333 | 0.0 | 0.0 | 0.00 | 0.10 | 0.00 | 81 | 996.0 |
| 20260507034006 | 10 | 333 | 0.0 | 0.0 | 0.00 | 0.10 | 0.00 | 81 | 996.0 |
| 20260507033506 | 10 | 333 | 0.0 | 0.0 | 0.00 | 0.10 | 0.00 | 81 | 996.0 |
| 20260507033005 | 10 | 334 | 0.0 | 0.0 | 0.00 | 0.10 | 0.00 | 82 | 996.0 |
| 20260507032505 | 10 | 333 | 0.0 | 0.0 | 0.00 | 0.10 | 0.00 | 82 | 996.0 |
| 20260507032006 | 10 | 334 | 0.0 | 0.0 | 0.00 | 0.10 | 0.00 | 81 | 996.0 |
| 20260507031506 | 10 | 334 | 0.0 | 0.0 | 0.00 | 0.10 | 0.00 | 82 | 996.0 |
| 20260507031005 | 10 | 333 | 0.0 | 0.0 | 0.00 | 0.10 | 0.00 | 82 | 996.0 |
| 20260507030505 | 10 | 334 | 0.0 | 0.0 | 0.00 | 0.10 | 0.00 | 82 | 996.0 |
| 20260507030005 | 10 | 334 | 0.0 | 0.0 | 0.00 | 0.10 | 0.00 | 82 | 996.0 |
| 20260507025506 | 11 | 334 | 0.0 | 0.0 | 0.00 | 0.10 | 0.00 | 82 | 996.0 |
| 20260507025006 | 11 | 333 | 0.0 | 0.0 | 0.00 | 0.10 | 0.00 | 82 | 996.0 |
| 20260507024506 | 11 | 334 | 0.0 | 0.0 | 0.00 | 0.10 | 0.00 | 83 | 996.0 |
| 20260507024006 | 11 | 333 | 0.0 | 0.0 | 0.00 | 0.10 | 0.00 | 83 | 996.0 |
| 20260507023506 | 11 | 333 | 0.0 | 0.0 | 0.00 | 0.10 | 0.00 | 83 | 996.0 |
| 20260507023006 | 10 | 334 | 0.0 | 0.0 | 0.00 | 0.10 | 0.00 | 83 | 996.0 |
| 20260507022505 | 10 | 334 | 0.0 | 0.0 | 0.00 | 0.10 | 0.00 | 83 | 996.0 |
| 20260507022006 | 10 | 333 | 0.0 | 0.0 | 0.00 | 0.10 | 0.00 | 84 | 996.0 |
| 20260507021506 | 11 | 333 | 0.0 | 0.0 | 0.00 | 0.10 | 0.00 | 84 | 996.0 |
| 20260507021005 | 11 | 333 | 0.0 | 0.0 | 0.00 | 0.10 | 0.00 | 84 | 996.0 |
| 20260507020506 | 11 | 333 | 0.0 | 0.0 | 0.00 | 0.10 | 0.00 | 84 | 996.0 |
| 20260507020006 | 11 | 333 | 0.0 | 0.0 | 0.00 | 0.10 | 0.00 | 85 | 996.0 |
| 20260507015506 | 11 | 334 | 0.0 | 0.0 | 0.00 | 0.10 | 0.00 | 85 | 996.0 |
| 20260507015006 | 11 | 334 | 0.0 | 0.0 | 0.00 | 0.10 | 0.00 | 85 | 996.0 |
| 20260507014506 | 11 | 333 | 0.0 | 0.0 | 0.00 | 0.10 | 0.00 | 85 | 996.0 |
| 20260507014006 | 11 | 333 | 0.0 | 0.0 | 0.00 | 0.10 | 0.00 | 85 | 997.0 |
| 20260507013506 | 11 | 333 | 0.0 | 0.0 | 0.00 | 0.10 | 0.00 | 85 | 997.0 |
| 20260507013006 | 11 | 333 | 0.0 | 0.0 | 0.00 | 0.10 | 0.00 | 85 | 997.0 |
| 20260507012506 | 11 | 334 | 0.0 | 0.0 | 0.00 | 0.10 | 0.00 | 85 | 997.0 |
| 20260507012005 | 10 | 334 | 0.0 | 0.0 | 0.00 | 0.10 | 0.00 | 85 | 997.0 |
| 20260507011506 | 10 | 333 | 0.0 | 0.0 | 0.00 | 0.10 | 0.00 | 85 | 997.0 |
| 20260507011006 | 10 | 334 | 0.0 | 0.0 | 0.00 | 0.10 | 0.00 | 85 | 997.0 |
| 20260507010505 | 10 | 334 | 0.0 | 0.0 | 0.00 | 0.10 | 0.00 | 85 | 997.0 |
| 20260507010006 | 10 | 333 | 0.0 | 0.0 | 0.00 | 0.10 | 0.00 | 85 | 997.0 |